Location: Caltech
(34.1382°N, 118.1253°W)
Time: 14:08:25
(UTC-08:00)

Oscar 10/S400 - Visible Passes

Search period start: 23 November 2014 00:00
Search period end: 03 December 2014 00:00
Orbit: 3940 x 35506 km, 26.0° (Epoch: 16 November)

Date Brightness Start Highest point End Pass type
(mag) Time Alt. Az. Time Alt. Az. Time Alt. Az.
26 Nov ? 23:51:59 10° WSW 00:18:06 11° WSW 00:51:29 10° WSW visible
27 Nov ? 22:32:17 10° W 23:31:53 18° WSW 01:39:23 10° WSW visible
28 Nov ? 21:35:58 10° W 22:43:39 26° WSW 02:05:18 10° SW visible
30 Nov ? 06:47:27 10° SSW 21:53:03 33° SW 07:43:11 10° E visible
01 Dec ? 05:48:03 10° SSW 21:00:04 39° SW 06:57:03 10° ESE visible
01 Dec ? 19:10:29 10° W 20:05:29 45° SW 06:10:19 10° ESE visible
02 Dec ? 18:24:46 10° W 19:11:00 50° SSW 00:00:00 25° SSW visible
